User: anonymous   Login
Location: Alma
(38.7220°N, 88.9090°W)
Time: 12:42:25
(UTC-06:00)
Language:

Tiros 1 - Orbit

View from above orbital plane
View from above orbital plane
View from above satellite
View from above satellite

Ground track
Ground track

The orbit data is extracted from the following two-line orbital elements,

1    29U 60002B   19322.27171233 -.00000116  00000-0  13793-4 0  9998
2    29  48.3793 229.9485 0023814  43.5821 316.6967 14.74328778187350
Epoch (UTC): 18 November 2019 06:31:15
Eccentricity: 0.0023814
inclination: 48.3793°
perigee height: 630 km
apogee height: 664 km
right ascension of ascending node: 229.9485°
argument of perigee: 43.5821°
revolutions per day: 14.74328778
mean anomaly at epoch: 316.6967°
orbit number at epoch: 18735

The dashed part of the orbit path shows where the satellite is in the earth's shadow,  

DLR